�������l�o���
Date,Time,MP-1(��Sv/h),MP-2(��Sv/h),MP-3(��Sv/h),MP-4(��Sv/h),MP-5(��Sv/h),MP-6(��Sv/h),MP-7(��Sv/h),MP-8(��Sv/h),����,����(m/s),���J
2022/07/07,00:00,0.563,0.815,0.525,0.993,0.702,0.333,0.581,0.550,�k,7.0,�L
2022/07/07,00:10,0.563,0.817,0.524,0.996,0.702,0.334,0.582,0.551,�k,7.3,�L
2022/07/07,00:20,0.563,0.817,0.525,0.996,0.703,0.333,0.581,0.551,�k,6.7,�L
2022/07/07,00:30,0.564,0.818,0.527,0.997,0.703,0.334,0.582,0.551,�k,7.3,�L
2022/07/07,00:40,0.565,0.819,0.525,0.998,0.705,0.335,0.581,0.551,�k,6.9,�L
2022/07/07,00:50,0.565,0.819,0.526,1.000,0.705,0.335,0.582,0.552,�k�k��,6.8,�L
2022/07/07,01:00,0.565,0.817,0.525,1.000,0.705,0.334,0.583,0.552,�k�k��,7.4,�L
2022/07/07,01:10,0.563,0.818,0.525,0.998,0.707,0.335,0.581,0.551,�k�k��,7.5,�L
2022/07/07,01:20,0.565,0.819,0.525,1.001,0.706,0.334,0.581,0.550,�k�k��,6.7,�L
2022/07/07,01:30,0.563,0.816,0.524,1.001,0.705,0.335,0.581,0.551,�k�k��,5.8,�L
2022/07/07,01:40,0.563,0.817,0.525,0.998,0.703,0.333,0.581,0.550,�k�k��,5.9,�L
2022/07/07,01:50,0.563,0.814,0.523,0.998,0.700,0.334,0.580,0.549,�k�k��,5.4,�L
2022/07/07,02:00,0.564,0.816,0.523,0.994,0.703,0.334,0.580,0.551,�k�k��,5.8,�L
2022/07/07,02:10,0.563,0.816,0.524,0.998,0.704,0.334,0.580,0.551,�k,6.8,�L
2022/07/07,02:20,0.563,0.817,0.523,0.996,0.702,0.334,0.579,0.550,�k�k��,6.6,�L
2022/07/07,02:30,0.562,0.817,0.523,0.994,0.701,0.334,0.579,0.550,�k,6.7,�L
2022/07/07,02:40,0.563,0.816,0.522,0.995,0.702,0.335,0.579,0.550,�k,6.9,�L
2022/07/07,02:50,0.564,0.817,0.525,0.998,0.704,0.333,0.581,0.551,�k,6.6,�L
2022/07/07,03:00,0.564,0.817,0.525,0.999,0.704,0.334,0.581,0.553,�k�k��,7.2,�L
2022/07/07,03:10,0.564,0.819,0.525,0.998,0.704,0.334,0.583,0.552,�k�k��,7.0,�L
2022/07/07,03:20,0.563,0.819,0.525,0.999,0.706,0.334,0.581,0.552,�k�k��,6.7,�L
2022/07/07,03:30,0.564,0.819,0.526,1.003,0.705,0.336,0.580,0.552,�k�k��,6.3,�L
2022/07/07,03:40,0.564,0.820,0.527,1.000,0.704,0.335,0.582,0.552,�k�k��,5.9,��
2022/07/07,03:50,0.565,0.822,0.528,1.001,0.705,0.335,0.581,0.554,�k,5.7,�L
2022/07/07,04:00,0.565,0.821,0.529,1.004,0.706,0.335,0.582,0.551,�k,5.8,�L
2022/07/07,04:10,0.567,0.821,0.528,1.004,0.708,0.335,0.582,0.553,�k,5.6,�L
2022/07/07,04:20,0.565,0.822,0.527,1.003,0.708,0.335,0.581,0.551,�k,5.6,�L
2022/07/07,04:30,0.564,0.822,0.528,1.005,0.709,0.335,0.582,0.552,�k,5.7,�L
2022/07/07,04:40,0.562,0.820,0.527,1.004,0.708,0.336,0.580,0.552,�k,5.4,�L
2022/07/07,04:50,0.564,0.818,0.526,1.000,0.704,0.336,0.580,0.551,�k,6.5,�L
2022/07/07,05:00,0.565,0.816,0.527,0.999,0.704,0.335,0.581,0.551,�k,6.7,�L
2022/07/07,05:10,0.563,0.818,0.524,0.998,0.705,0.336,0.581,0.551,�k,6.0,�L
2022/07/07,05:20,0.563,0.816,0.525,0.998,0.704,0.335,0.578,0.551,�k,4.5,�L
2022/07/07,05:30,0.563,0.817,0.523,0.998,0.703,0.333,0.581,0.550,�k,5.6,�L
2022/07/07,05:40,0.562,0.817,0.523,0.996,0.703,0.333,0.581,0.551,�k,5.2,�L
2022/07/07,05:50,0.563,0.816,0.525,0.992,0.701,0.334,0.578,0.550,�k,5.7,�L
2022/07/07,06:00,0.563,0.816,0.524,0.993,0.702,0.336,0.579,0.550,�k,6.0,�L
2022/07/07,06:10,0.564,0.818,0.525,0.996,0.701,0.334,0.580,0.549,�k,6.6,�L
2022/07/07,06:20,0.562,0.817,0.525,0.997,0.704,0.335,0.580,0.549,�k,7.3,�L
2022/07/07,06:30,0.564,0.816,0.524,0.996,0.703,0.333,0.580,0.551,�k,6.4,�L
2022/07/07,06:40,0.562,0.816,0.526,0.997,0.704,0.334,0.580,0.550,�k,6.2,�L
2022/07/07,06:50,0.563,0.816,0.522,0.994,0.704,0.336,0.580,0.550,�k,5.8,�L
2022/07/07,07:00,0.562,0.816,0.524,0.995,0.701,0.335,0.581,0.550,�k,6.1,�L
2022/07/07,07:10,0.563,0.818,0.523,0.994,0.702,0.334,0.581,0.551,�k,5.6,�L
2022/07/07,07:20,0.563,0.818,0.524,0.995,0.703,0.334,0.579,0.552,�k,6.1,�L
2022/07/07,07:30,0.561,0.816,0.524,0.994,0.703,0.335,0.580,0.551,�k,6.1,�L
2022/07/07,07:40,0.561,0.815,0.523,0.994,0.704,0.335,0.581,0.551,�k,6.7,�L
2022/07/07,07:50,0.561,0.814,0.523,0.994,0.703,0.334,0.580,0.550,�k,6.8,�L
2022/07/07,08:00,0.562,0.815,0.524,0.995,0.702,0.336,0.579,0.551,�k,6.4,�L
2022/07/07,08:10,0.563,0.815,0.524,0.995,0.703,0.335,0.579,0.551,�k,6.7,�L
2022/07/07,08:20,0.562,0.813,0.522,0.996,0.703,0.334,0.581,0.551,�k�k��,7.5,�L
2022/07/07,08:30,0.563,0.814,0.522,0.995,0.704,0.336,0.581,0.551,�k,6.5,�L
2022/07/07,08:40,0.564,0.814,0.523,0.995,0.705,0.334,0.579,0.550,�k,6.6,�L
2022/07/07,08:50,0.563,0.817,0.525,0.997,0.704,0.332,0.580,0.549,�k,5.5,�L
2022/07/07,09:00,0.563,0.817,0.525,0.996,0.704,0.334,0.580,0.550,�k,7.1,�L
2022/07/07,09:10,0.563,0.817,0.526,0.995,0.704,0.336,0.581,0.549,�k,5.5,�L
2022/07/07,09:20,0.563,0.816,0.525,0.998,0.704,0.334,0.580,0.551,�k,7.4,�L
2022/07/07,09:30,0.564,0.814,0.521,1.000,0.705,0.335,0.580,0.551,�k,6.7,�L
2022/07/07,09:40,0.562,0.816,0.521,0.997,0.704,0.333,0.581,0.550,�k�k��,5.4,�L
2022/07/07,09:50,0.564,0.816,0.524,0.999,0.703,0.334,0.581,0.550,�k,7.0,�L
2022/07/07,10:00,0.562,0.815,0.524,0.999,0.704,0.332,0.579,0.552,�k,8.0,�L
2022/07/07,10:10,0.561,0.813,0.524,0.999,0.703,0.333,0.582,0.550,�k,6.8,�L
2022/07/07,10:20,0.562,0.813,0.527,0.999,0.703,0.334,0.581,0.550,�k,5.1,�L
2022/07/07,10:30,0.559,0.811,0.523,0.997,0.703,0.334,0.579,0.549,�k,4.9,�L
2022/07/07,10:40,0.564,0.809,0.523,0.997,0.704,0.335,0.580,0.550,�k,5.4,�L
2022/07/07,10:50,0.563,0.815,0.521,0.997,0.703,0.335,0.581,0.549,�k,5.9,�L
2022/07/07,11:00,0.561,0.811,0.523,0.996,0.703,0.334,0.579,0.549,�k,7.5,�L
2022/07/07,11:10,0.562,0.812,0.524,0.996,0.704,0.336,0.581,0.549,�k,7.4,�L
2022/07/07,11:20,0.561,0.813,0.522,0.995,0.704,0.335,0.579,0.550,�k,7.6,�L
2022/07/07,11:30,0.562,0.814,0.522,0.992,0.701,0.334,0.580,0.551,�k,7.9,�L
2022/07/07,11:40,0.562,0.814,0.522,0.993,0.701,0.334,0.581,0.548,�k�k��,7.9,�L
2022/07/07,11:50,0.562,0.815,0.522,0.995,0.704,0.333,0.580,0.550,�k,8.1,�L
2022/07/07,12:00,0.563,0.813,0.522,0.992,0.703,0.333,0.580,0.550,�k,8.2,�L
2022/07/07,12:10,0.564,0.815,0.522,0.993,0.703,0.335,0.581,0.549,�k,7.5,�L
2022/07/07,12:20,0.561,0.815,0.523,0.994,0.702,0.335,0.581,0.549,�k,6.4,�L
2022/07/07,12:30,0.563,0.815,0.525,0.996,0.703,0.334,0.580,0.551,�k�k��,6.5,�L
2022/07/07,12:40,0.563,0.817,0.523,0.995,0.704,0.335,0.581,0.550,�k�k��,6.4,�L
2022/07/07,12:50,0.564,0.814,0.523,0.996,0.704,0.335,0.581,0.551,�k,6.7,�L
2022/07/07,13:00,0.563,0.818,0.522,0.996,0.705,0.333,0.581,0.552,�k,6.7,�L
2022/07/07,13:10,0.564,0.817,0.524,0.999,0.705,0.334,0.581,0.551,�k,5.7,��
2022/07/07,13:20,0.566,0.819,0.524,0.996,0.705,0.335,0.580,0.551,�k,6.9,��
2022/07/07,13:30,0.563,0.818,0.522,0.998,0.705,0.334,0.581,0.550,�k,6.3,�L
2022/07/07,13:40,0.564,0.817,0.524,0.998,0.705,0.333,0.581,0.553,�k,5.9,��
2022/07/07,13:50,0.564,0.817,0.525,0.998,0.706,0.334,0.581,0.551,�k,5.1,��
2022/07/07,14:00,0.564,0.818,0.525,0.997,0.706,0.335,0.581,0.551,�k,5.4,��
2022/07/07,14:10,0.566,0.818,0.525,0.999,0.705,0.334,0.582,0.551,�k,5.8,��
2022/07/07,14:20,0.564,0.819,0.524,1.000,0.705,0.336,0.583,0.552,�k,5.8,��
2022/07/07,14:30,0.562,0.819,0.523,0.999,0.707,0.335,0.583,0.551,�k,5.2,��
2022/07/07,14:40,0.566,0.820,0.525,1.000,0.708,0.337,0.582,0.553,�k,5.4,��
2022/07/07,14:50,0.563,0.822,0.524,1.000,0.706,0.335,0.581,0.553,�k,5.7,��
2022/07/07,15:00,0.566,0.820,0.525,1.000,0.707,0.333,0.582,0.552,�k,5.3,��
2022/07/07,15:10,0.567,0.821,0.527,0.998,0.709,0.335,0.583,0.551,�k,5.1,�L
2022/07/07,15:20,0.567,0.820,0.526,0.998,0.707,0.336,0.584,0.551,�k�k��,4.2,��
2022/07/07,15:30,0.567,0.822,0.525,1.003,0.708,0.334,0.583,0.554,�k�k��,4.9,��
2022/07/07,15:40,0.569,0.822,0.526,1.000,0.708,0.335,0.584,0.552,�k,4.5,��
2022/07/07,15:50,0.569,0.823,0.527,1.000,0.709,0.334,0.583,0.555,�k�k��,4.8,��
2022/07/07,16:00,0.569,0.824,0.525,1.003,0.708,0.336,0.584,0.553,�k�k��,5.4,��
2022/07/07,16:10,0.568,0.823,0.527,1.001,0.708,0.334,0.583,0.553,�k,4.4,��
2022/07/07,16:20,0.569,0.822,0.526,1.000,0.710,0.335,0.583,0.554,�k,4.2,��
2022/07/07,16:30,0.569,0.825,0.528,1.003,0.710,0.336,0.585,0.554,�k,3.9,��
2022/07/07,16:40,0.567,0.823,0.527,1.001,0.708,0.336,0.582,0.553,�k,5.3,��
2022/07/07,16:50,0.567,0.823,0.526,1.002,0.709,0.335,0.582,0.554,�k,4.9,��
2022/07/07,17:00,0.568,0.825,0.526,1.002,0.709,0.334,0.583,0.553,�k,4.3,��
2022/07/07,17:10,0.568,0.826,0.527,1.002,0.710,0.335,0.585,0.553,�k,4.1,��
2022/07/07,17:20,0.568,0.824,0.527,1.003,0.709,0.336,0.584,0.552,�k,3.9,��
2022/07/07,17:30,0.568,0.825,0.529,1.003,0.710,0.336,0.583,0.555,�k,3.8,��
2022/07/07,17:40,0.567,0.824,0.528,1.003,0.711,0.334,0.583,0.553,�k,4.4,��
2022/07/07,17:50,0.567,0.823,0.526,1.000,0.710,0.335,0.584,0.552,�k�k��,4.2,��
2022/07/07,18:00,0.566,0.825,0.529,1.004,0.711,0.335,0.585,0.552,�k,4.0,�L
2022/07/07,18:10,0.568,0.825,0.528,1.001,0.710,0.335,0.584,0.553,�k,4.5,�L
2022/07/07,18:20,0.569,0.824,0.528,1.004,0.711,0.334,0.585,0.553,�k,3.8,��
2022/07/07,18:30,0.569,0.825,0.529,1.002,0.710,0.335,0.584,0.555,�k,4.1,��
2022/07/07,18:40,0.569,0.826,0.529,1.004,0.711,0.336,0.584,0.554,�k,4.5,��
2022/07/07,18:50,0.570,0.826,0.529,1.000,0.710,0.335,0.584,0.554,�k,3.6,��
2022/07/07,19:00,0.567,0.827,0.529,1.003,0.712,0.334,0.584,0.553,�k,3.0,��
2022/07/07,19:10,0.571,0.827,0.530,1.003,0.713,0.335,0.585,0.554,�k�k��,4.0,��
2022/07/07,19:20,0.569,0.828,0.531,1.004,0.714,0.335,0.585,0.554,�k,3.9,��
2022/07/07,19:30,0.572,0.827,0.531,1.005,0.712,0.338,0.583,0.556,�k�k��,3.7,��
2022/07/07,19:40,0.572,0.828,0.530,1.005,0.714,0.336,0.585,0.553,�k�k��,4.5,��
2022/07/07,19:50,0.572,0.828,0.530,1.006,0.712,0.334,0.585,0.554,�k�k��,4.2,��
2022/07/07,20:00,0.573,0.829,0.530,1.005,0.714,0.336,0.584,0.554,�k�k��,4.4,��
2022/07/07,20:10,0.572,0.829,0.531,1.004,0.712,0.336,0.584,0.553,�k,3.7,��
2022/07/07,20:20,0.572,0.829,0.529,1.006,0.713,0.336,0.585,0.553,�k�k��,4.6,��
2022/07/07,20:30,0.572,0.828,0.530,1.003,0.714,0.335,0.584,0.554,�k,4.4,��
2022/07/07,20:40,0.572,0.828,0.531,1.006,0.712,0.337,0.583,0.553,�k�k��,3.8,��
2022/07/07,20:50,0.572,0.830,0.530,1.004,0.715,0.335,0.585,0.554,�k,3.6,��
2022/07/07,21:00,0.571,0.830,0.530,1.006,0.711,0.337,0.584,0.556,�k,3.4,��
2022/07/07,21:10,0.570,0.829,0.529,1.006,0.713,0.336,0.584,0.554,�k,4.2,��
2022/07/07,21:20,0.570,0.829,0.531,1.007,0.715,0.336,0.586,0.554,�k,4.5,�L
2022/07/07,21:30,0.570,0.825,0.530,1.005,0.714,0.335,0.585,0.553,�k,4.4,�L
2022/07/07,21:40,0.569,0.829,0.533,1.006,0.712,0.336,0.586,0.553,�k,4.5,�L
2022/07/07,21:50,0.568,0.829,0.530,1.008,0.710,0.336,0.586,0.553,�k,3.6,�L
2022/07/07,22:00,0.569,0.827,0.530,1.006,0.714,0.336,0.584,0.553,�k,3.9,�L
2022/07/07,22:10,0.570,0.829,0.531,1.006,0.713,0.336,0.585,0.553,�k,4.5,�L
2022/07/07,22:20,0.568,0.827,0.529,1.005,0.713,0.336,0.584,0.555,�k,4.8,�L
2022/07/07,22:30,0.567,0.825,0.530,1.007,0.713,0.336,0.584,0.554,�k,4.2,�L
2022/07/07,22:40,0.569,0.826,0.529,1.008,0.713,0.336,0.584,0.554,�k,5.1,�L
2022/07/07,22:50,0.570,0.825,0.531,1.006,0.713,0.336,0.584,0.553,�k,5.3,�L
2022/07/07,23:00,0.569,0.825,0.530,1.007,0.714,0.337,0.584,0.554,�k,4.6,�L
2022/07/07,23:10,0.569,0.826,0.531,1.003,0.712,0.335,0.584,0.554,�k,4.9,��
2022/07/07,23:20,0.569,0.827,0.531,1.007,0.714,0.337,0.584,0.554,�k,4.6,��
2022/07/07,23:30,0.570,0.826,0.532,1.007,0.714,0.337,0.585,0.554,�k,4.3,�L
2022/07/07,23:40,0.568,0.826,0.530,1.003,0.713,0.336,0.585,0.554,�k�k��,4.4,�L
2022/07/07,23:50,0.569,0.826,0.530,1.005,0.713,0.337,0.583,0.554,�k,4.9,��
